Time,TemperatureF,DewpointF,PressureIn,WindDirection,WindDirectionDegrees,WindSpeedMPH,WindSpeedGustMPH,Humidity,HourlyPrecipIn,Conditions,Clouds,dailyrainin,SoftwareType,DateUTC
2013-03-29 00:05:00,37.6,21.0,30.11,SSE,167,1.0,2.0,51,0.00,,,0.00,meteohub,2013-03-29 06:05:00,
2013-03-29 00:10:00,37.6,21.6,30.11,SSE,153,1.0,3.0,52,0.00,,,0.00,meteohub,2013-03-29 06:10:00,
2013-03-29 00:16:00,37.2,21.2,30.12,East,95,0.0,3.0,52,0.00,,,0.00,meteohub,2013-03-29 06:16:00,
2013-03-29 00:21:00,36.3,21.2,30.12,NE,36,3.0,3.0,54,0.00,,,0.00,meteohub,2013-03-29 06:21:00,
2013-03-29 00:27:00,35.2,21.2,30.12,NE,36,2.0,5.0,56,0.00,,,0.00,meteohub,2013-03-29 06:27:00,
2013-03-29 00:33:00,34.3,21.0,30.12,North,11,3.0,5.0,58,0.00,,,0.00,meteohub,2013-03-29 06:33:00,
2013-03-29 00:38:00,34.2,21.4,30.12,NNE,15,2.0,5.0,59,0.00,,,0.00,meteohub,2013-03-29 06:38:00,
2013-03-29 00:44:00,34.0,21.6,30.12,NNW,330,2.0,5.0,60,0.00,,,0.00,meteohub,2013-03-29 06:44:00,
2013-03-29 00:49:00,33.8,21.4,30.12,NW,326,1.0,3.0,60,0.00,,,0.00,meteohub,2013-03-29 06:49:00,
2013-03-29 00:55:00,34.2,21.4,30.12,NW,319,2.0,3.0,59,0.00,,,0.00,meteohub,2013-03-29 06:55:00,
2013-03-29 01:00:00,34.2,20.8,30.12,NW,323,2.0,3.0,58,0.00,,,0.00,meteohub,2013-03-29 07:00:00,
2013-03-29 01:06:00,34.5,21.2,30.12,WNW,300,2.0,3.0,58,0.00,,,0.00,meteohub,2013-03-29 07:06:00,
2013-03-29 01:12:00,34.3,21.0,30.12,WNW,290,3.0,3.0,58,0.00,,,0.00,meteohub,2013-03-29 07:12:00,
2013-03-29 01:17:00,34.3,21.0,30.12,WNW,285,3.0,4.0,58,0.00,,,0.00,meteohub,2013-03-29 07:17:00,
2013-03-29 01:22:00,34.3,21.0,30.12,NW,313,2.0,5.0,58,0.00,,,0.00,meteohub,2013-03-29 07:22:00,
2013-03-29 01:27:00,35.1,20.5,30.12,NW,306,2.0,5.0,55,0.00,,,0.00,meteohub,2013-03-29 07:27:00,
2013-03-29 01:32:00,34.9,20.8,30.12,WNW,292,2.0,5.0,56,0.00,,,0.00,meteohub,2013-03-29 07:32:00,
2013-03-29 01:37:00,35.1,20.5,30.12,NW,317,2.0,4.0,55,0.00,,,0.00,meteohub,2013-03-29 07:37:00,
2013-03-29 01:43:00,35.2,20.3,30.12,NW,320,3.0,5.0,54,0.00,,,0.00,meteohub,2013-03-29 07:43:00,
2013-03-29 01:49:00,35.1,20.1,30.13,NNW,329,5.0,6.0,54,0.00,,,0.00,meteohub,2013-03-29 07:49:00,
2013-03-29 01:54:00,34.9,20.3,30.13,NNW,331,7.0,7.0,55,0.00,,,0.00,meteohub,2013-03-29 07:54:00,
2013-03-29 01:59:00,34.3,20.3,30.13,NNW,333,7.0,7.0,56,0.00,,,0.00,meteohub,2013-03-29 07:59:00,
2013-03-29 02:05:00,34.0,20.3,30.13,NNW,330,6.0,7.0,57,0.00,,,0.00,meteohub,2013-03-29 08:05:00,
2013-03-29 02:11:00,33.4,20.7,30.13,NNW,328,7.0,10.0,59,0.00,,,0.00,meteohub,2013-03-29 08:11:00,
2013-03-29 02:16:00,33.4,21.0,30.13,NW,326,6.0,9.0,60,0.00,,,0.00,meteohub,2013-03-29 08:16:00,
2013-03-29 02:22:00,33.3,20.8,30.13,NW,322,6.0,8.0,60,0.00,,,0.00,meteohub,2013-03-29 08:22:00,
2013-03-29 02:27:00,33.1,21.0,30.12,NW,323,5.0,8.0,61,0.00,,,0.00,meteohub,2013-03-29 08:27:00,
2013-03-29 02:32:00,32.7,20.8,30.12,NNW,336,6.0,8.0,61,0.00,,,0.00,meteohub,2013-03-29 08:32:00,
2013-03-29 02:37:00,32.7,20.8,30.12,NW,322,3.0,8.0,61,0.00,,,0.00,meteohub,2013-03-29 08:37:00,
2013-03-29 02:42:00,32.4,19.9,30.12,NW,307,5.0,8.0,60,0.00,,,0.00,meteohub,2013-03-29 08:42:00,
2013-03-29 02:47:00,33.1,20.3,30.12,NW,309,4.0,8.0,59,0.00,,,0.00,meteohub,2013-03-29 08:47:00,
2013-03-29 02:53:00,33.3,20.5,30.12,NW,324,5.0,7.0,59,0.00,,,0.00,meteohub,2013-03-29 08:53:00,
2013-03-29 02:58:00,33.6,20.8,30.12,NNW,327,4.0,7.0,59,0.00,,,0.00,meteohub,2013-03-29 08:58:00,
2013-03-29 03:04:00,34.2,20.8,30.12,NW,309,3.0,7.0,58,0.00,,,0.00,meteohub,2013-03-29 09:04:00,
2013-03-29 03:09:00,34.0,20.8,30.12,NNW,329,4.0,7.0,58,0.00,,,0.00,meteohub,2013-03-29 09:09:00,
2013-03-29 03:15:00,33.6,20.5,30.12,NW,324,1.0,7.0,58,0.00,,,0.00,meteohub,2013-03-29 09:15:00,
2013-03-29 03:20:00,33.4,20.7,30.12,NW,318,3.0,5.0,59,0.00,,,0.00,meteohub,2013-03-29 09:20:00,
2013-03-29 03:26:00,32.9,20.5,30.12,NNW,347,4.0,5.0,60,0.00,,,0.00,meteohub,2013-03-29 09:26:00,
2013-03-29 03:32:00,32.2,20.7,30.12,NNW,333,4.0,5.0,62,0.00,,,0.00,meteohub,2013-03-29 09:32:00,
2013-03-29 03:37:00,31.8,20.3,30.12,NNW,338,3.0,5.0,62,0.00,,,0.00,meteohub,2013-03-29 09:37:00,
2013-03-29 03:42:00,31.5,20.3,30.12,NNW,333,5.0,5.0,63,0.00,,,0.00,meteohub,2013-03-29 09:42:00,
2013-03-29 03:47:00,30.4,20.3,30.12,NNW,336,6.0,6.0,66,0.00,,,0.00,meteohub,2013-03-29 09:47:00,
2013-03-29 03:52:00,30.0,21.0,30.12,NW,315,3.0,8.0,69,0.00,,,0.00,meteohub,2013-03-29 09:52:00,
2013-03-29 03:57:00,29.8,20.8,30.12,NW,321,4.0,8.0,69,0.00,,,0.00,meteohub,2013-03-29 09:57:00,
2013-03-29 04:02:00,29.8,20.8,30.12,NW,322,2.0,8.0,69,0.00,,,0.00,meteohub,2013-03-29 10:02:00,
2013-03-29 04:07:00,30.4,20.7,30.11,NW,315,3.0,6.0,67,0.00,,,0.00,meteohub,2013-03-29 10:07:00,
2013-03-29 04:13:00,30.9,20.8,30.12,NNW,327,7.0,7.0,66,0.00,,,0.00,meteohub,2013-03-29 10:13:00,
2013-03-29 04:18:00,31.1,20.7,30.11,NNW,330,2.0,8.0,65,0.00,,,0.00,meteohub,2013-03-29 10:18:00,
2013-03-29 04:24:00,31.3,20.5,30.11,NNW,333,6.0,8.0,64,0.00,,,0.00,meteohub,2013-03-29 10:24:00,
2013-03-29 04:29:00,31.6,20.8,30.11,NW,324,7.0,8.0,64,0.00,,,0.00,meteohub,2013-03-29 10:29:00,
2013-03-29 04:35:00,31.8,21.0,30.11,NNW,332,5.0,10.0,64,0.00,,,0.00,meteohub,2013-03-29 10:35:00,
2013-03-29 04:40:00,31.8,21.0,30.12,NNW,329,4.0,11.0,64,0.00,,,0.00,meteohub,2013-03-29 10:40:00,
2013-03-29 04:46:00,31.8,21.0,30.12,NNW,332,3.0,11.0,64,0.00,,,0.00,meteohub,2013-03-29 10:46:00,
2013-03-29 04:52:00,31.6,20.8,30.12,NW,323,1.0,5.0,64,0.00,,,0.00,meteohub,2013-03-29 10:52:00,
2013-03-29 04:57:00,31.1,20.3,30.11,NW,322,1.0,5.0,64,0.00,,,0.00,meteohub,2013-03-29 10:57:00,
2013-03-29 05:03:00,31.5,20.7,30.12,West,260,0.0,5.0,64,0.00,,,0.00,meteohub,2013-03-29 11:03:00,
2013-03-29 05:09:00,31.6,20.5,30.11,NW,319,0.0,5.0,63,0.00,,,0.00,meteohub,2013-03-29 11:09:00,
2013-03-29 05:14:00,31.3,20.5,30.12,NNW,335,4.0,5.0,64,0.00,,,0.00,meteohub,2013-03-29 11:14:00,
2013-03-29 05:20:00,31.3,20.8,30.12,NW,323,5.0,7.0,65,0.00,,,0.00,meteohub,2013-03-29 11:20:00,
2013-03-29 05:26:00,31.1,21.0,30.12,NNW,328,6.0,7.0,66,0.00,,,0.00,meteohub,2013-03-29 11:26:00,
2013-03-29 05:31:00,31.3,21.2,30.12,NW,321,4.0,8.0,66,0.00,,,0.00,meteohub,2013-03-29 11:31:00,
2013-03-29 05:37:00,31.1,21.0,30.12,NW,321,6.0,10.0,66,0.00,,,0.00,meteohub,2013-03-29 11:37:00,
2013-03-29 05:42:00,30.7,21.0,30.12,NNW,328,8.0,10.0,67,0.00,,,0.00,meteohub,2013-03-29 11:42:00,
2013-03-29 05:47:00,30.6,21.2,30.12,NNW,335,7.0,11.0,68,0.00,,,0.00,meteohub,2013-03-29 11:47:00,
2013-03-29 05:52:00,30.2,20.8,30.13,NW,322,4.0,11.0,68,0.00,,,0.00,meteohub,2013-03-29 11:52:00,
2013-03-29 05:58:00,30.0,21.0,30.13,NW,318,6.0,10.0,69,0.00,,,0.00,meteohub,2013-03-29 11:58:00,
2013-03-29 06:03:00,30.2,21.2,30.13,NNW,336,8.0,10.0,69,0.00,,,0.00,meteohub,2013-03-29 12:03:00,
2013-03-29 06:09:00,29.8,20.8,30.13,NW,325,2.0,12.0,69,0.00,,,0.00,meteohub,2013-03-29 12:09:00,
2013-03-29 06:14:00,29.7,21.0,30.13,NW,326,4.0,12.0,70,0.00,,,0.00,meteohub,2013-03-29 12:14:00,
2013-03-29 06:20:00,29.7,21.0,30.14,NW,316,2.0,12.0,70,0.00,,,0.00,meteohub,2013-03-29 12:20:00,
2013-03-29 06:26:00,29.5,21.2,30.13,NW,316,1.0,7.0,71,0.00,,,0.00,meteohub,2013-03-29 12:26:00,
2013-03-29 06:32:00,29.7,21.0,30.14,NW,326,2.0,7.0,70,0.00,,,0.00,meteohub,2013-03-29 12:32:00,
2013-03-29 06:37:00,29.8,21.2,30.14,NW,309,2.0,6.0,70,0.00,,,0.00,meteohub,2013-03-29 12:37:00,
2013-03-29 06:42:00,30.0,21.0,30.14,WNW,285,2.0,6.0,69,0.00,,,0.00,meteohub,2013-03-29 12:42:00,
2013-03-29 06:47:00,30.4,21.4,30.14,NW,315,1.0,4.0,69,0.00,,,0.00,meteohub,2013-03-29 12:47:00,
2013-03-29 06:52:00,30.6,21.2,30.14,NNW,330,2.0,4.0,68,0.00,,,0.00,meteohub,2013-03-29 12:52:00,
2013-03-29 06:58:00,30.9,21.2,30.14,NW,322,4.0,5.0,67,0.00,,,0.00,meteohub,2013-03-29 12:58:00,
2013-03-29 07:04:00,30.6,21.2,30.15,NW,312,2.0,6.0,68,0.00,,,0.00,meteohub,2013-03-29 13:04:00,
2013-03-29 07:09:00,30.6,20.8,30.15,NNW,331,6.0,6.0,67,0.00,,,0.00,meteohub,2013-03-29 13:09:00,
2013-03-29 07:15:00,30.4,21.0,30.15,NW,318,3.0,7.0,68,0.00,,,0.00,meteohub,2013-03-29 13:15:00,
2013-03-29 07:21:00,30.2,20.8,30.16,NNW,333,6.0,7.0,68,0.00,,,0.00,meteohub,2013-03-29 13:21:00,
2013-03-29 07:26:00,30.4,21.0,30.16,NNW,329,5.0,8.0,68,0.00,,,0.00,meteohub,2013-03-29 13:26:00,
2013-03-29 07:32:00,30.7,21.0,30.16,NW,324,5.0,8.0,67,0.00,,,0.00,meteohub,2013-03-29 13:32:00,
2013-03-29 07:37:00,30.9,21.2,30.16,NW,326,3.0,7.0,67,0.00,,,0.00,meteohub,2013-03-29 13:37:00,
2013-03-29 07:42:00,31.3,21.2,30.17,NW,326,6.0,7.0,66,0.00,,,0.00,meteohub,2013-03-29 13:42:00,
2013-03-29 07:47:00,31.8,21.4,30.16,NNW,336,4.0,8.0,65,0.00,,,0.00,meteohub,2013-03-29 13:47:00,
2013-03-29 07:52:00,32.7,21.6,30.16,NW,316,3.0,8.0,63,0.00,,,0.00,meteohub,2013-03-29 13:52:00,
2013-03-29 07:57:00,33.6,21.9,30.16,NNW,347,6.0,8.0,62,0.00,,,0.00,meteohub,2013-03-29 13:57:00,
2013-03-29 08:02:00,34.0,23.5,30.16,NNE,15,4.0,10.0,65,0.00,,,0.00,meteohub,2013-03-29 14:02:00,
2013-03-29 08:07:00,33.6,23.5,30.17,North,4,8.0,10.0,66,0.00,,,0.00,meteohub,2013-03-29 14:07:00,
2013-03-29 08:12:00,32.7,22.6,30.17,NNE,23,9.0,13.0,66,0.00,,,0.00,meteohub,2013-03-29 14:12:00,
2013-03-29 08:17:00,32.5,22.5,30.16,NW,324,3.0,13.0,66,0.00,,,0.00,meteohub,2013-03-29 14:17:00,
2013-03-29 08:23:00,33.8,23.4,30.16,NNW,335,5.0,13.0,65,0.00,,,0.00,meteohub,2013-03-29 14:23:00,
2013-03-29 08:28:00,35.4,23.4,30.15,NNW,330,6.0,12.0,61,0.00,,,0.00,meteohub,2013-03-29 14:28:00,
2013-03-29 08:34:00,36.7,22.1,30.15,North,349,9.0,10.0,55,0.00,,,0.00,meteohub,2013-03-29 14:34:00,
2013-03-29 08:39:00,38.5,23.4,30.15,NNW,336,3.0,10.0,54,0.00,,,0.00,meteohub,2013-03-29 14:39:00,
2013-03-29 08:45:00,39.4,22.3,30.15,NNE,18,5.0,10.0,50,0.00,,,0.00,meteohub,2013-03-29 14:45:00,
2013-03-29 08:51:00,40.5,22.3,30.15,North,352,6.0,9.0,48,0.00,,,0.00,meteohub,2013-03-29 14:51:00,
2013-03-29 08:56:00,41.0,22.3,30.15,NNE,20,4.0,12.0,47,0.00,,,0.00,meteohub,2013-03-29 14:56:00,
2013-03-29 09:02:00,41.2,21.9,30.15,NNE,27,9.0,12.0,46,0.00,,,0.00,meteohub,2013-03-29 15:02:00,
2013-03-29 09:07:00,41.2,22.5,30.14,NNE,27,3.0,11.0,47,0.00,,,0.00,meteohub,2013-03-29 15:07:00,
2013-03-29 09:12:00,41.4,22.1,30.14,NE,44,5.0,10.0,46,0.00,,,0.00,meteohub,2013-03-29 15:12:00,
2013-03-29 09:17:00,41.5,22.8,30.14,North,7,5.0,10.0,47,0.00,,,0.00,meteohub,2013-03-29 15:17:00,
2013-03-29 09:23:00,43.3,22.8,30.13,WNW,295,4.0,10.0,44,0.00,,,0.00,meteohub,2013-03-29 15:23:00,
2013-03-29 09:28:00,44.8,23.0,30.13,NNE,18,4.0,13.0,42,0.00,,,0.00,meteohub,2013-03-29 15:28:00,
2013-03-29 09:34:00,44.1,23.5,30.13,NNE,25,13.0,13.0,44,0.00,,,0.00,meteohub,2013-03-29 15:34:00,
2013-03-29 09:39:00,43.5,22.5,30.13,NNW,331,6.0,15.0,43,0.00,,,0.00,meteohub,2013-03-29 15:39:00,
2013-03-29 09:45:00,44.1,23.0,30.13,NNE,18,13.0,15.0,43,0.00,,,0.00,meteohub,2013-03-29 15:45:00,
2013-03-29 09:50:00,44.4,22.8,30.13,North,6,7.0,15.0,42,0.00,,,0.00,meteohub,2013-03-29 15:50:00,
2013-03-29 09:56:00,45.1,22.8,30.12,NNE,26,8.0,14.0,41,0.00,,,0.00,meteohub,2013-03-29 15:56:00,
2013-03-29 10:02:00,45.7,22.8,30.12,NNW,338,5.0,14.0,40,0.00,,,0.00,meteohub,2013-03-29 16:02:00,
2013-03-29 10:07:00,45.9,22.3,30.12,NE,50,2.0,13.0,39,0.00,,,0.00,meteohub,2013-03-29 16:07:00,
2013-03-29 10:12:00,46.6,23.0,30.12,NNE,27,7.0,12.0,39,0.00,,,0.00,meteohub,2013-03-29 16:12:00,
2013-03-29 10:17:00,46.2,23.2,30.12,NW,314,6.0,12.0,40,0.00,,,0.00,meteohub,2013-03-29 16:17:00,
2013-03-29 10:22:00,46.0,22.5,30.12,NNW,338,3.0,11.0,39,0.00,,,0.00,meteohub,2013-03-29 16:22:00,
2013-03-29 10:27:00,45.9,22.8,30.12,NNE,29,10.0,11.0,40,0.00,,,0.00,meteohub,2013-03-29 16:27:00,
2013-03-29 10:32:00,45.7,22.8,30.12,NE,54,4.0,10.0,40,0.00,,,0.00,meteohub,2013-03-29 16:32:00,
2013-03-29 10:37:00,45.7,22.8,30.12,NE,42,6.0,11.0,40,0.00,,,0.00,meteohub,2013-03-29 16:37:00,
2013-03-29 10:42:00,45.7,23.4,30.12,ENE,76,4.0,11.0,41,0.00,,,0.00,meteohub,2013-03-29 16:42:00,
2013-03-29 10:47:00,46.0,23.7,30.12,ENE,61,4.0,10.0,41,0.00,,,0.00,meteohub,2013-03-29 16:47:00,
2013-03-29 10:52:00,46.4,23.9,30.12,ENE,61,6.0,10.0,41,0.00,,,0.00,meteohub,2013-03-29 16:52:00,
2013-03-29 10:58:00,47.3,23.5,30.12,East,101,5.0,9.0,39,0.00,,,0.00,meteohub,2013-03-29 16:58:00,
2013-03-29 11:03:00,47.7,23.4,30.12,ESE,119,3.0,7.0,38,0.00,,,0.00,meteohub,2013-03-29 17:03:00,
2013-03-29 11:09:00,47.5,22.5,30.11,SE,127,4.0,7.0,37,0.00,,,0.00,meteohub,2013-03-29 17:09:00,
2013-03-29 11:14:00,48.0,23.0,30.11,NNE,15,8.0,8.0,37,0.00,,,0.00,meteohub,2013-03-29 17:14:00,
2013-03-29 11:20:00,48.4,23.4,30.11,ENE,67,6.0,12.0,37,0.00,,,0.00,meteohub,2013-03-29 17:20:00,
2013-03-29 11:25:00,48.0,23.0,30.10,ENE,74,4.0,12.0,37,0.00,,,0.00,meteohub,2013-03-29 17:25:00,
2013-03-29 11:31:00,48.9,23.2,30.10,East,88,5.0,11.0,36,0.00,,,0.00,meteohub,2013-03-29 17:31:00,
2013-03-29 11:37:00,49.6,22.5,30.10,NNE,12,1.0,11.0,34,0.00,,,0.00,meteohub,2013-03-29 17:37:00,
2013-03-29 11:42:00,49.6,22.5,30.10,NNE,18,0.0,11.0,34,0.00,,,0.00,meteohub,2013-03-29 17:42:00,
2013-03-29 11:47:00,50.4,23.0,30.10,North,11,1.0,7.0,34,0.00,,,0.00,meteohub,2013-03-29 17:47:00,
2013-03-29 11:52:00,50.7,22.6,30.09,ESE,114,3.0,7.0,33,0.00,,,0.00,meteohub,2013-03-29 17:52:00,
2013-03-29 11:58:00,50.9,22.8,30.09,SE,135,5.0,6.0,33,0.00,,,0.00,meteohub,2013-03-29 17:58:00,
2013-03-29 12:03:00,50.5,22.5,30.09,SSW,193,3.0,7.0,33,0.00,,,0.00,meteohub,2013-03-29 18:03:00,
2013-03-29 12:09:00,50.5,23.2,30.09,ESE,116,3.0,7.0,34,0.00,,,0.00,meteohub,2013-03-29 18:09:00,
2013-03-29 12:14:00,51.3,22.5,30.09,ESE,118,2.0,7.0,32,0.00,,,0.00,meteohub,2013-03-29 18:14:00,
2013-03-29 12:20:00,51.6,22.6,30.09,NW,305,1.0,13.0,32,0.00,,,0.00,meteohub,2013-03-29 18:20:00,
2013-03-29 12:25:00,51.3,20.1,30.08,WNW,297,5.0,17.0,29,0.00,,,0.00,meteohub,2013-03-29 18:25:00,
2013-03-29 12:31:00,50.5,19.4,30.08,NW,316,5.0,17.0,29,0.00,,,0.00,meteohub,2013-03-29 18:31:00,
2013-03-29 12:37:00,50.7,20.5,30.08,NW,325,10.0,17.0,30,0.00,,,0.00,meteohub,2013-03-29 18:37:00,
2013-03-29 12:42:00,51.1,21.6,30.07,NNW,342,8.0,17.0,31,0.00,,,0.00,meteohub,2013-03-29 18:42:00,
2013-03-29 12:47:00,50.7,19.6,30.07,NNW,342,5.0,17.0,29,0.00,,,0.00,meteohub,2013-03-29 18:47:00,
2013-03-29 12:52:00,50.7,20.5,30.07,NW,317,5.0,16.0,30,0.00,,,0.00,meteohub,2013-03-29 18:52:00,
2013-03-29 12:57:00,52.0,20.7,30.07,NW,305,4.0,16.0,29,0.00,,,0.00,meteohub,2013-03-29 18:57:00,
2013-03-29 13:03:00,52.9,19.8,30.06,NNW,339,10.0,16.0,27,0.00,,,0.00,meteohub,2013-03-29 19:03:00,
2013-03-29 13:08:00,53.1,19.9,30.06,West,264,7.0,11.0,27,0.00,,,0.00,meteohub,2013-03-29 19:08:00,
2013-03-29 13:14:00,53.1,20.8,30.05,NNE,15,9.0,11.0,28,0.00,,,0.00,meteohub,2013-03-29 19:14:00,
2013-03-29 13:19:00,53.4,21.2,30.05,NNE,25,8.0,15.0,28,0.00,,,0.00,meteohub,2013-03-29 19:19:00,
2013-03-29 13:25:00,53.4,18.5,30.04,NNE,21,5.0,15.0,25,0.00,,,0.00,meteohub,2013-03-29 19:25:00,
2013-03-29 13:31:00,54.1,19.9,30.04,NW,304,1.0,10.0,26,0.00,,,0.00,meteohub,2013-03-29 19:31:00,
2013-03-29 13:36:00,55.0,18.0,30.04,SW,235,3.0,9.0,23,0.00,,,0.00,meteohub,2013-03-29 19:36:00,
2013-03-29 13:42:00,54.3,17.2,30.04,NNW,346,6.0,11.0,23,0.00,,,0.00,meteohub,2013-03-29 19:42:00,
2013-03-29 13:47:00,54.0,17.1,30.03,NNW,338,11.0,11.0,23,0.00,,,0.00,meteohub,2013-03-29 19:47:00,
2013-03-29 13:52:00,53.2,16.3,30.04,NW,325,8.0,18.0,23,0.00,,,0.00,meteohub,2013-03-29 19:52:00,
2013-03-29 13:57:00,53.2,17.4,30.03,NNW,341,4.0,18.0,24,0.00,,,0.00,meteohub,2013-03-29 19:57:00,
2013-03-29 14:03:00,53.4,15.4,30.03,NW,326,5.0,18.0,22,0.00,,,0.00,meteohub,2013-03-29 20:03:00,
2013-03-29 14:08:00,54.0,16.0,30.03,NW,325,9.0,14.0,22,0.00,,,0.00,meteohub,2013-03-29 20:08:00,
2013-03-29 14:14:00,53.6,15.6,30.03,NNW,333,9.0,14.0,22,0.00,,,0.00,meteohub,2013-03-29 20:14:00,
2013-03-29 14:19:00,53.6,15.6,30.02,NNW,327,5.0,16.0,22,0.00,,,0.00,meteohub,2013-03-29 20:19:00,
2013-03-29 14:25:00,54.9,17.8,30.02,North,351,8.0,16.0,23,0.00,,,0.00,meteohub,2013-03-29 20:25:00,
2013-03-29 14:31:00,55.0,14.7,30.02,NW,314,3.0,15.0,20,0.00,,,0.00,meteohub,2013-03-29 20:31:00,
2013-03-29 14:37:00,55.2,18.1,30.02,SSE,149,3.0,15.0,23,0.00,,,0.00,meteohub,2013-03-29 20:37:00,
2013-03-29 14:42:00,56.3,19.0,30.01,SW,227,5.0,8.0,23,0.00,,,0.00,meteohub,2013-03-29 20:42:00,
2013-03-29 14:48:00,55.6,20.3,30.01,WSW,246,9.0,16.0,25,0.00,,,0.00,meteohub,2013-03-29 20:48:00,
2013-03-29 14:53:00,54.1,18.1,30.01,SSE,149,4.0,21.0,24,0.00,,,0.00,meteohub,2013-03-29 20:53:00,
2013-03-29 14:59:00,54.1,17.1,30.01,SW,233,4.0,21.0,23,0.00,,,0.00,meteohub,2013-03-29 20:59:00,
2013-03-29 15:04:00,54.3,18.3,30.00,North,352,4.0,16.0,24,0.00,,,0.00,meteohub,2013-03-29 21:04:00,
2013-03-29 15:10:00,54.3,18.3,30.01,WSW,250,2.0,14.0,24,0.00,,,0.00,meteohub,2013-03-29 21:10:00,
2013-03-29 15:15:00,54.7,18.5,30.01,WNW,290,4.0,21.0,24,0.00,,,0.00,meteohub,2013-03-29 21:15:00,
2013-03-29 15:21:00,54.3,18.3,30.01,NNW,340,17.0,21.0,24,0.00,,,0.00,meteohub,2013-03-29 21:21:00,
2013-03-29 15:27:00,53.8,17.8,30.01,NNW,332,11.0,21.0,24,0.00,,,0.00,meteohub,2013-03-29 21:27:00,
2013-03-29 15:32:00,53.6,19.6,30.01,NNW,332,7.0,21.0,26,0.00,,,0.00,meteohub,2013-03-29 21:32:00,
2013-03-29 15:37:00,53.4,18.5,30.01,NW,314,13.0,21.0,25,0.00,,,0.00,meteohub,2013-03-29 21:37:00,
2013-03-29 15:42:00,53.8,17.8,30.02,NW,317,9.0,21.0,24,0.00,,,0.00,meteohub,2013-03-29 21:42:00,
2013-03-29 15:47:00,53.1,18.1,30.01,WSW,253,7.0,21.0,25,0.00,,,0.00,meteohub,2013-03-29 21:47:00,
2013-03-29 15:52:00,54.0,18.0,30.02,NNW,340,6.0,19.0,24,0.00,,,0.00,meteohub,2013-03-29 21:52:00,
2013-03-29 15:57:00,53.6,16.7,30.02,North,9,6.0,16.0,23,0.00,,,0.00,meteohub,2013-03-29 21:57:00,
2013-03-29 16:02:00,53.8,16.9,30.02,NNW,335,7.0,16.0,23,0.00,,,0.00,meteohub,2013-03-29 22:02:00,
2013-03-29 16:07:00,53.6,16.7,30.02,WNW,286,10.0,16.0,23,0.00,,,0.00,meteohub,2013-03-29 22:07:00,
2013-03-29 16:13:00,54.0,17.1,30.01,NNW,334,10.0,15.0,23,0.00,,,0.00,meteohub,2013-03-29 22:13:00,
2013-03-29 16:18:00,54.7,16.5,30.01,North,8,3.0,19.0,22,0.00,,,0.00,meteohub,2013-03-29 22:18:00,
2013-03-29 16:24:00,55.4,16.2,30.01,NW,312,10.0,19.0,21,0.00,,,0.00,meteohub,2013-03-29 22:24:00,
2013-03-29 16:29:00,56.1,16.7,30.01,WNW,298,3.0,19.0,21,0.00,,,0.00,meteohub,2013-03-29 22:29:00,
2013-03-29 16:35:00,56.5,15.8,30.01,NW,306,7.0,16.0,20,0.00,,,0.00,meteohub,2013-03-29 22:35:00,
2013-03-29 16:41:00,55.8,15.3,30.01,WNW,291,12.0,16.0,20,0.00,,,0.00,meteohub,2013-03-29 22:41:00,
2013-03-29 16:46:00,55.8,15.3,30.01,NNW,328,14.0,16.0,20,0.00,,,0.00,meteohub,2013-03-29 22:46:00,
2013-03-29 16:52:00,55.2,14.9,30.01,NW,326,16.0,20.0,20,0.00,,,0.00,meteohub,2013-03-29 22:52:00,
2013-03-29 16:57:00,55.2,16.0,30.01,NNW,338,5.0,20.0,21,0.00,,,0.00,meteohub,2013-03-29 22:57:00,
2013-03-29 17:02:00,55.6,15.1,30.02,NW,316,11.0,22.0,20,0.00,,,0.00,meteohub,2013-03-29 23:02:00,
2013-03-29 17:07:00,54.0,13.8,30.02,NW,309,9.0,27.0,20,0.00,,,0.00,meteohub,2013-03-29 23:07:00,
2013-03-29 17:12:00,53.1,13.1,30.02,NW,310,14.0,27.0,20,0.00,,,0.00,meteohub,2013-03-29 23:12:00,
2013-03-29 17:17:00,53.2,14.4,30.02,NNW,336,13.0,26.0,21,0.00,,,0.00,meteohub,2013-03-29 23:17:00,
2013-03-29 17:22:00,53.6,14.5,30.02,NNW,342,11.0,20.0,21,0.00,,,0.00,meteohub,2013-03-29 23:22:00,
2013-03-29 17:27:00,53.4,14.4,30.02,NNW,327,3.0,20.0,21,0.00,,,0.00,meteohub,2013-03-29 23:27:00,
2013-03-29 17:32:00,53.6,15.6,30.02,NNW,343,13.0,26.0,22,0.00,,,0.00,meteohub,2013-03-29 23:32:00,
2013-03-29 17:37:00,54.0,16.0,30.02,NW,317,11.0,26.0,22,0.00,,,0.00,meteohub,2013-03-29 23:37:00,
2013-03-29 17:43:00,53.8,16.9,30.02,NNW,340,6.0,26.0,23,0.00,,,0.00,meteohub,2013-03-29 23:43:00,
2013-03-29 17:49:00,54.0,16.0,30.02,NNW,336,8.0,24.0,22,0.00,,,0.00,meteohub,2013-03-29 23:49:00,
2013-03-29 17:54:00,53.6,16.7,30.02,NNW,330,6.0,16.0,23,0.00,,,0.00,meteohub,2013-03-29 23:54:00,
2013-03-29 18:00:00,53.8,15.8,30.02,WNW,302,5.0,15.0,22,0.00,,,0.00,meteohub,2013-03-30 00:00:00,
2013-03-29 18:05:00,54.0,16.0,30.02,NNW,335,12.0,14.0,22,0.00,,,0.00,meteohub,2013-03-30 00:05:00,
2013-03-29 18:11:00,53.4,16.5,30.02,North,0,11.0,15.0,23,0.00,,,0.00,meteohub,2013-03-30 00:11:00,
2013-03-29 18:16:00,52.9,16.2,30.02,NW,320,18.0,20.0,23,0.00,,,0.00,meteohub,2013-03-30 00:16:00,
2013-03-29 18:22:00,52.5,15.8,30.02,NW,326,19.0,20.0,23,0.00,,,0.00,meteohub,2013-03-30 00:22:00,
2013-03-29 18:27:00,51.8,17.1,30.03,NNW,342,8.0,22.0,25,0.00,,,0.00,meteohub,2013-03-30 00:27:00,
2013-03-29 18:32:00,51.3,16.7,30.03,NNW,335,11.0,22.0,25,0.00,,,0.00,meteohub,2013-03-30 00:32:00,
2013-03-29 18:38:00,50.7,16.2,30.03,NW,314,13.0,22.0,25,0.00,,,0.00,meteohub,2013-03-30 00:38:00,
2013-03-29 18:43:00,50.5,20.3,30.03,NNW,334,14.0,24.0,30,0.00,,,0.00,meteohub,2013-03-30 00:43:00,
2013-03-29 18:49:00,49.8,21.9,30.03,NNW,336,24.0,24.0,33,0.00,,,0.00,meteohub,2013-03-30 00:49:00,
2013-03-29 18:54:00,48.2,22.5,30.03,NNW,348,16.0,24.0,36,0.00,,,0.00,meteohub,2013-03-30 00:54:00,
2013-03-29 19:00:00,46.9,23.2,30.03,NNW,333,20.0,26.0,39,0.00,,,0.00,meteohub,2013-03-30 01:00:00,
2013-03-29 19:06:00,45.9,24.1,30.04,NNW,330,13.0,22.0,42,0.00,,,0.00,meteohub,2013-03-30 01:06:00,
2013-03-29 19:11:00,45.1,24.4,30.04,NNW,342,14.0,22.0,44,0.00,,,0.00,meteohub,2013-03-30 01:11:00,
2013-03-29 19:17:00,44.6,25.2,30.04,NNW,337,10.0,22.0,46,0.00,,,0.00,meteohub,2013-03-30 01:17:00,
2013-03-29 19:22:00,44.2,25.3,30.04,NNW,333,13.0,22.0,47,0.00,,,0.00,meteohub,2013-03-30 01:22:00,
2013-03-29 19:27:00,44.1,25.7,30.04,NNW,333,8.0,22.0,48,0.00,,,0.00,meteohub,2013-03-30 01:27:00,
2013-03-29 19:32:00,43.9,25.5,30.04,NNE,25,6.0,16.0,48,0.00,,,0.00,meteohub,2013-03-30 01:32:00,
2013-03-29 19:37:00,43.5,25.2,30.04,NNW,329,11.0,16.0,48,0.00,,,0.00,meteohub,2013-03-30 01:37:00,
2013-03-29 19:42:00,43.3,25.0,30.04,NW,309,9.0,15.0,48,0.00,,,0.00,meteohub,2013-03-30 01:42:00,
2013-03-29 19:47:00,43.2,24.8,30.04,North,7,8.0,14.0,48,0.00,,,0.00,meteohub,2013-03-30 01:47:00,
2013-03-29 19:53:00,43.3,25.0,30.04,NNW,335,7.0,17.0,48,0.00,,,0.00,meteohub,2013-03-30 01:53:00,
2013-03-29 19:58:00,43.2,24.8,30.04,NW,319,9.0,17.0,48,0.00,,,0.00,meteohub,2013-03-30 01:58:00,
2013-03-29 20:04:00,43.0,25.2,30.05,NNW,329,11.0,16.0,49,0.00,,,0.00,meteohub,2013-03-30 02:04:00,
2013-03-29 20:09:00,42.8,25.0,30.05,NNW,329,14.0,16.0,49,0.00,,,0.00,meteohub,2013-03-30 02:09:00,
2013-03-29 20:15:00,42.6,24.3,30.05,NNW,333,11.0,16.0,48,0.00,,,0.00,meteohub,2013-03-30 02:15:00,
2013-03-29 20:21:00,42.4,24.6,30.05,NNW,342,4.0,16.0,49,0.00,,,0.00,meteohub,2013-03-30 02:21:00,
2013-03-29 20:26:00,41.9,24.1,30.06,NNW,333,5.0,13.0,49,0.00,,,0.00,meteohub,2013-03-30 02:26:00,
2013-03-29 20:32:00,41.7,23.9,30.06,NNW,331,9.0,12.0,49,0.00,,,0.00,meteohub,2013-03-30 02:32:00,
2013-03-29 20:37:00,41.4,23.7,30.06,NNW,340,8.0,12.0,49,0.00,,,0.00,meteohub,2013-03-30 02:37:00,
2013-03-29 20:42:00,41.7,23.9,30.06,NW,322,9.0,14.0,49,0.00,,,0.00,meteohub,2013-03-30 02:42:00,
2013-03-29 20:47:00,41.7,23.9,30.07,NW,324,12.0,14.0,49,0.00,,,0.00,meteohub,2013-03-30 02:47:00,
2013-03-29 20:52:00,41.7,23.9,30.07,NW,307,13.0,18.0,49,0.00,,,0.00,meteohub,2013-03-30 02:52:00,
2013-03-29 20:57:00,41.5,23.7,30.07,NNW,331,9.0,18.0,49,0.00,,,0.00,meteohub,2013-03-30 02:57:00,
2013-03-29 21:02:00,41.5,23.4,30.07,NNW,327,8.0,18.0,48,0.00,,,0.00,meteohub,2013-03-30 03:02:00,
2013-03-29 21:08:00,41.5,23.4,30.07,NW,324,8.0,14.0,48,0.00,,,0.00,meteohub,2013-03-30 03:08:00,
2013-03-29 21:13:00,41.4,23.2,30.07,NNW,328,8.0,13.0,48,0.00,,,0.00,meteohub,2013-03-30 03:13:00,
2013-03-29 21:19:00,41.4,23.2,30.07,NW,325,8.0,13.0,48,0.00,,,0.00,meteohub,2013-03-30 03:19:00,
2013-03-29 21:24:00,41.0,23.4,30.08,North,349,11.0,16.0,49,0.00,,,0.00,meteohub,2013-03-30 03:24:00,
2013-03-29 21:30:00,40.6,23.0,30.08,NNW,344,10.0,16.0,49,0.00,,,0.00,meteohub,2013-03-30 03:30:00,
2013-03-29 21:36:00,40.5,23.4,30.08,NNW,332,12.0,15.0,50,0.00,,,0.00,meteohub,2013-03-30 03:36:00,
2013-03-29 21:42:00,40.6,23.0,30.08,NNW,342,14.0,16.0,49,0.00,,,0.00,meteohub,2013-03-30 03:42:00,
2013-03-29 21:47:00,40.6,23.5,30.08,NW,320,10.0,16.0,50,0.00,,,0.00,meteohub,2013-03-30 03:47:00,
2013-03-29 21:52:00,40.6,23.5,30.09,NNW,336,9.0,18.0,50,0.00,,,0.00,meteohub,2013-03-30 03:52:00,
2013-03-29 21:57:00,40.3,23.5,30.09,NNW,336,15.0,18.0,51,0.00,,,0.00,meteohub,2013-03-30 03:57:00,
2013-03-29 22:00:00,40.3,23.5,30.09,NNW,333,13.0,18.0,51,0.00,,,0.00,meteohub,2013-03-30 04:00:00,
2013-03-29 22:02:00,40.3,23.5,30.09,NNW,342,10.0,18.0,51,0.00,,,0.00,meteohub,2013-03-30 04:02:00,
2013-03-29 22:07:00,39.6,23.4,30.09,NW,323,8.0,18.0,52,0.00,,,0.00,meteohub,2013-03-30 04:07:00,
2013-03-29 22:09:00,39.6,23.4,30.09,North,352,8.0,18.0,52,0.00,,,0.00,meteohub,2013-03-30 04:09:00,
2013-03-29 22:14:00,39.4,23.2,30.09,NNW,333,12.0,18.0,52,0.00,,,0.00,meteohub,2013-03-30 04:14:00,
2013-03-29 22:19:00,39.2,23.5,30.10,NNW,340,10.0,17.0,53,0.00,,,0.00,meteohub,2013-03-30 04:19:00,
2013-03-29 22:25:00,39.2,23.5,30.10,NW,321,13.0,17.0,53,0.00,,,0.00,meteohub,2013-03-30 04:25:00,
2013-03-29 22:30:00,39.9,23.2,30.10,NNW,333,12.0,16.0,51,0.00,,,0.00,meteohub,2013-03-30 04:30:00,
2013-03-29 22:36:00,40.6,23.0,30.10,NNW,330,13.0,18.0,49,0.00,,,0.00,meteohub,2013-03-30 04:36:00,
2013-03-29 22:42:00,41.7,22.5,30.10,NW,311,11.0,18.0,46,0.00,,,0.00,meteohub,2013-03-30 04:42:00,
2013-03-29 22:47:00,41.9,22.6,30.11,NNW,333,11.0,16.0,46,0.00,,,0.00,meteohub,2013-03-30 04:47:00,
2013-03-29 22:53:00,41.2,22.5,30.11,NNW,329,10.0,16.0,47,0.00,,,0.00,meteohub,2013-03-30 04:53:00,
2013-03-29 22:58:00,41.5,22.3,30.11,NW,324,5.0,16.0,46,0.00,,,0.00,meteohub,2013-03-30 04:58:00,
2013-03-29 23:04:00,41.5,22.3,30.11,West,264,3.0,14.0,46,0.00,,,0.00,meteohub,2013-03-30 05:04:00,
2013-03-29 23:09:00,42.3,23.0,30.11,West,281,4.0,11.0,46,0.00,,,0.00,meteohub,2013-03-30 05:09:00,
2013-03-29 23:15:00,41.5,22.3,30.11,West,269,3.0,10.0,46,0.00,,,0.00,meteohub,2013-03-30 05:15:00,
2013-03-29 23:21:00,40.8,22.1,30.11,WNW,285,4.0,6.0,47,0.00,,,0.00,meteohub,2013-03-30 05:21:00,
2013-03-29 23:27:00,40.6,21.9,30.12,WNW,282,3.0,8.0,47,0.00,,,0.00,meteohub,2013-03-30 05:27:00,
2013-03-29 23:32:00,40.3,22.1,30.12,NNW,337,0.0,8.0,48,0.00,,,0.00,meteohub,2013-03-30 05:32:00,
2013-03-29 23:37:00,39.7,22.1,30.12,NNW,340,1.0,8.0,49,0.00,,,0.00,meteohub,2013-03-30 05:37:00,
2013-03-29 23:42:00,39.4,21.4,30.12,WNW,284,2.0,5.0,48,0.00,,,0.00,meteohub,2013-03-30 05:42:00,
2013-03-29 23:48:00,39.4,21.4,30.12,West,263,2.0,3.0,48,0.00,,,0.00,meteohub,2013-03-30 05:48:00,
2013-03-29 23:53:00,39.7,21.2,30.11,West,280,0.0,2.0,47,0.00,,,0.00,meteohub,2013-03-30 05:53:00,
2013-03-29 23:59:00,39.9,21.4,30.12,West,280,0.0,2.0,47,0.00,,,0.00,meteohub,2013-03-30 05:59:00,